Tracking 19832 objects as of 26-Aug-2019
HD Live streaming from Space Station
objects crossing your sky now

COSMOS 2251 DEB

Track COSMOS 2251 DEB now!
10-day predictions


NORAD ID: 37501
Int'l Code: 1993-036BME
Perigee: 589.2 km
Apogee: 673.5 km
Inclination: 74.0 °
Period: 97.2 minutes
Semi major axis: 7002 km
RCS: 0.003 m2 (small)
Launch date: June 16, 1993
Source: Commonwealth of Independent States (former USSR) (CIS)
Launch site: PLESETSK MISSILE AND SPACE COMPLEX (PKMTR)

Note: This is SATELLITE DEBRIS
aabbcc
Your satellite tracking list
Your tracking list is empty




NASA's NSSDC Master Catalog

Two Line Element Set (TLE):
1 37501U 93036BME 19236.00903455  .00000716  00000-0  92941-4 0  9997
2 37501  74.0037 128.4886 0060170 139.4830 221.0850 14.81616090522012
Source of the keplerian elements: AFSPC